#timestamp,LO_Frequency,Hit 
1500685215.5,286046996.0,N
1500685235.4,286046993.9,N
1500685255.2,286046994.3,N
1500685275.0,286046994.8,N
1500685275.9,286046994.8,N
1500685295.8,286046994.6,N
1500685315.6,286046994.3,N
1500685335.5,286046994.3,N
1500685355.3,286046994.7,N
1500685375.1,286046992.8,N
1500685395.9,286046992.7,N
1500685415.7,286046994.7,N
1500685435.5,286046992.3,N
1500685455.4,286046992.3,N
1500685475.2,286046992.4,N
1500685495.1,286046992.8,N
1500685496.0,286046992.8,N
1500685515.8,286046993.1,N
1500685535.6,286046990.5,N
1500685555.5,286046993.1,N
1500685575.3,286046990.2,N
1500685625.2,286046990.8,Y
1500685635.1,286046996.0,N
1500685636.0,286046996.0,N
1500685655.8,286046998.3,N
1500685675.7,286047001.2,N
1500685695.5,286047000.8,N
1500685715.4,286047001.1,N
1500685735.2,286047000.6,N
1500685755.0,286047001.2,N
1500685755.9,286047001.2,N
1500685775.8,286046998.6,N
1500685795.6,286046998.5,N
1500685815.5,286046998.5,N
1500685835.3,286046998.3,N
1500685855.1,286046999.4,N
1500685875.9,286046999.3,N
1500685895.7,286046999.5,N
1500685915.5,286046996.6,N
1500685935.4,286046997.0,N
1500685955.2,286046997.3,N
1500685975.1,286046996.6,N
1500685976.0,286046996.6,N
1500685995.8,286046999.5,N
1500686015.6,286046996.5,N
1500686035.5,286046996.6,N
1500686055.3,286046997.6,N
1500686075.2,286046997.9,N
1500686095.9,286046995.1,N
1500686115.9,286046995.5,N
1500686135.7,286046994.9,N
1500686155.5,286046997.6,N
1500686175.4,286046997.8,N
1500686195.2,286046996.9,N
1500686215.1,286046997.2,N
1500686216.0,286046997.2,N
1500686235.8,286046996.9,N
1500686255.6,286046997.7,N
1500686275.5,286046997.3,N
1500686295.3,286046997.8,N
1500686315.1,286046997.5,N
1500686335.9,286046997.4,N
1500686355.7,286046996.5,N
1500686375.6,286046999.6,N
1500686395.4,286046999.1,N
1500686415.2,286046998.9,N
1500686435.1,286046996.6,N
1500686436.0,286046996.6,N
1500686455.8,286046996.6,N
1500686475.3,286046998.9,N
1500686495.1,286046998.5,N
1500686515.9,286046998.2,N
1500686535.7,286047001.2,N
1500686555.5,286046998.1,N
1500686575.4,286046998.9,N
1500686595.2,286047001.1,N
1500686615.1,286046998.3,N
1500686616.0,286046998.3,N
1500686635.8,286047001.2,N
1500686655.6,286047000.9,N
1500686675.5,286047001.1,N
1500686695.3,286047000.5,N
1500686715.1,286047000.4,N
1500686735.9,286047000.3,N
1500686755.7,286047000.4,N
1500686775.6,286046999.8,N
1500686795.4,286047000.3,N
1500686815.2,286047000.1,N
1500686835.1,286046999.7,N
1500686836.0,286046999.7,N
1500686855.8,286047002.7,N
1500686875.7,286047002.5,N
1500686895.5,286047001.7,N
1500686915.3,286047004.4,N
1500686935.2,286047001.4,N
1500686955.0,286047001.9,N
1500686955.9,286047001.9,N
1500686975.8,286047004.0,N
1500686995.6,286047004.2,N
1500687015.4,286047001.3,N
1500687035.3,286047004.0,N
1500687055.1,286047003.8,N
1500687075.8,286047004.3,N
1500687095.7,286047003.9,N
1500687115.5,286047003.8,N
1500687135.4,286047001.7,N
1500687155.2,286047001.5,N
1500687175.0,286047001.3,N
1500687175.9,286047001.3,N
1500687195.8,286047003.9,N
1500687215.6,286047001.9,N
1500687235.4,286047004.2,N
1500687255.3,286047003.1,N
1500687275.1,286047004.2,N
1500687295.9,286047004.3,N
1500687315.7,286047001.7,N
1500687335.5,286047004.2,N
1500687355.4,286047003.6,N
1500687375.2,286047006.0,N
1500687395.1,286047003.3,N
1500687396.0,286047003.3,N
1500687415.8,286047003.2,N
1500687435.6,286047003.3,N
1500687455.5,286047004.3,N
1500687475.3,286047005.9,N
1500687495.2,286047002.9,N
1500687515.9,286047005.3,N
1500687535.7,286047006.0,N
1500687555.6,286047005.3,N
1500687575.4,286047005.6,N
1500687595.2,286047005.8,N
1500687615.1,286047005.8,N
1500687616.0,286047005.8,N
1500687635.8,286047004.7,N
1500687655.7,286047005.3,N
1500687675.5,286047007.6,N
1500687695.3,286047006.0,N
1500687715.2,286047005.8,N
1500687735.0,286047005.3,N
1500687735.9,286047005.3,N
1500687755.8,286047005.7,N
1500687775.6,286047005.3,N
1500687795.4,286047005.8,N
1500687815.3,286047005.5,N
1500687835.1,286047005.5,N
1500687855.8,286047005.5,N
1500687875.7,286047005.7,N
1500687895.5,286047006.0,N
1500687915.4,286047005.9,N
1500687935.2,286047002.9,N
1500687955.0,286047003.3,N
1500687955.9,286047003.3,N
1500687975.8,286047003.0,N
1500687995.6,286047002.9,N
1500688015.4,286047005.9,N
1500688035.3,286047005.9,N
1500688055.1,286047005.6,N
1500688075.9,286047005.6,N
1500688095.7,286047003.4,N
1500688115.5,286047003.1,N
1500688135.4,286047006.0,N
1500688155.2,286047003.3,N
1500688175.1,286047003.0,N
1500688176.0,286047003.0,N
1500688195.8,286047003.6,N
1500688215.6,286047005.9,N
1500688235.5,286047004.9,N
1500688255.3,286047005.8,N
1500688275.2,286047004.2,N
1500688295.9,286047005.5,N
1500688315.7,286047005.5,N
1500688335.6,286047003.3,N
1500688355.4,286047005.9,N
1500688375.2,286047005.7,N
1500688395.1,286047003.3,N
1500688396.0,286047003.3,N
1500688415.8,286047005.5,N
1500688435.7,286047005.5,N
1500688455.5,286047005.3,N
1500688475.3,286047005.6,N
1500688495.2,286047005.0,N
1500688515.0,286047006.0,N
1500688515.9,286047006.0,N
1500688535.8,286047005.7,N
1500688555.6,286047007.4,N
1500688575.4,286047005.7,N
1500688595.3,286047005.2,N
1500688615.1,286047005.8,N
1500688635.8,286047009.1,N
1500688655.7,286047008.5,N
1500688675.5,286047008.0,N
1500688695.4,286047006.5,N
1500688715.2,286047009.2,N
1500688735.0,286047004.5,N
1500688735.9,286047004.5,N
1500688755.8,286047006.2,N
1500688775.6,286047008.0,N
1500688795.5,286047008.8,N
